This is the latest recevied weather packets stored in our database for station/object W1HVD. If no packets are shown the sender has not sent any weather packets the latest 10 day(s).
| Time | Temp. | Humidity | Pressure | Rain* | Wind** | Luminosity | Snow |
|---|---|---|---|---|---|---|---|
| 1777847935 | 11.11° C | 41% | 1007.6 hPa | 0 mm | - | 43 W/m² | - |
| 1777847632 | 11.67° C | 39% | 1007.6 hPa | 0 mm | - | 47 W/m² | - |
| 1777847327 | 11.67° C | 42% | 1007.6 hPa | 0 mm | - | 51 W/m² | - |
| 1777847026 | 11.67° C | 38% | 1007.5 hPa | 0 mm | - | 63 W/m² | - |
| 1777846724 | 11.67° C | 40% | 1007.4 hPa | 0 mm | - | 58 W/m² | - |
| 1777846423 | 11.67° C | 41% | 1007.3 hPa | 0 mm | - | 50 W/m² | - |
| 1777846118 | 11.67° C | 40% | 1007 hPa | 0 mm | - | 47 W/m² | - |
| 1777845815 | 11.67° C | 42% | 1007.1 hPa | 0 mm | - | 47 W/m² | - |
| 1777845512 | 11.67° C | 38% | 1007.2 hPa | 0 mm | - | 57 W/m² | - |
| 1777845209 | 12.22° C | 38% | 1007.1 hPa | 0 mm | - | 61 W/m² | - |
| 1777844907 | 12.22° C | 39% | 1006.9 hPa | 0 mm | - | 64 W/m² | - |
| 1777844604 | 12.22° C | 38% | 1006.7 hPa | 0 mm | - | 69 W/m² | - |
| 1777844301 | 12.22° C | 37% | 1006.8 hPa | 0 mm | - | 80 W/m² | - |
| 1777843999 | 12.22° C | 41% | 1006.5 hPa | 0 mm | - | 96 W/m² | - |
| 1777843695 | 12.22° C | 36% | 1006.6 hPa | 0 mm | - | 120 W/m² | - |
| 1777843393 | 12.78° C | 36% | 1006.4 hPa | 0 mm | - | 122 W/m² | - |
| 1777843090 | 12.78° C | 39% | 1006.3 hPa | 0 mm | - | 279 W/m² | - |
| 1777842787 | 12.78° C | 42% | 1006.4 hPa | 0 mm | - | 161 W/m² | - |
| 1777842487 | 12.78° C | 38% | 1006.4 hPa | 0 mm | - | 206 W/m² | - |
| 1777842185 | 12.22° C | 40% | 1006.2 hPa | 0 mm | - | 154 W/m² | - |
| 1777841880 | 12.22° C | 41% | 1006.2 hPa | 0 mm | - | 162 W/m² | - |
| 1777841577 | 12.22° C | 40% | 1006 hPa | 0 mm | - | 157 W/m² | - |
| 1777841273 | 12.22° C | 40% | 1006 hPa | 0 mm | - | 162 W/m² | - |
| 1777840971 | 12.78° C | 38% | 1005.9 hPa | 0 mm | - | 149 W/m² | - |
| 1777840668 | 12.78° C | 37% | 1006.1 hPa | 0 mm | - | 204 W/m² | - |
* Rain latest hour (hover to see other rain measurements)
** Current wind speed in m/s (hover to see current wind gust speed)